Wetbulb
65.92 65.69 65.33 65.03 64.80 64.94 64.24 62.61 60.91 59.78 58.60 58.10 58.48 59.01 59.30 59.75 59.84 59.00 59.90 60.57 60.97 60.51 61.15 61.39 60.62 61.45 60.86 59.02 59.98 58.99 57.36 56.72 52.26 55.44 56.31 58.07 57.59 58.18 59.36 60.99 61.04 60.60 60.21
65.22 64.11 63.47 63.50 63.07 62.59 62.05 60.58 59.11 57.60 57.59 58.47 59.07 59.28 59.39 59.41 58.97 59.20 60.21 60.35 59.73 59.06 58.98 58.96 59.51 60.36 59.95 60.61 60.69 59.96 58.72 58.34 56.66 55.81 56.06 55.73 57.31 57.65 58.89 58.85 58.70 59.18 59.87
63.87 63.16 62.75 62.21 61.48 60.67 59.40 58.78 58.39 58.08 57.79 58.36 58.92 58.74 57.93 58.25 58.34 58.73 58.54 58.13 57.51 57.36 58.69 59.52 59.88 60.88 59.73 59.40 59.78 59.79 59.79 58.51 57.51 55.62 55.43 55.51 55.58 56.51 57.11 58.10 58.35 59.47 58.86
63.26 62.11 61.48 61.11 61.17 61.26 61.19 60.93 59.29 58.07 57.99 58.27 58.28 57.75 56.87 57.44 58.06 57.70 56.96 56.67 57.12 57.84 58.79 59.31 60.00 60.96 59.67 59.47 59.61 60.13 59.97 58.47 57.16 55.58 55.30 54.96 54.43 56.73 55.53 55.43 55.79 56.79 56.77
62.00 61.21 60.76 61.29 61.71 61.24 60.75 59.84 58.57 58.29 57.28 57.23 57.13 56.57 56.68 56.99 56.56 56.37 56.44 56.64 57.10 57.36 57.81 58.72 59.87 60.88 60.67 61.38 61.08 61.31 59.93 58.54 57.14 56.25 55.19 54.81 54.82 55.29 55.47 56.65 55.37 56.08 57.33
61.86 61.17 61.36 60.98 61.02 60.67 59.35 58.56 58.15 57.64 57.30 57.13 56.51 56.24 55.90 56.62 58.58 59.81 58.25 57.36 57.45 57.31 57.21 58.09 58.11 59.00 59.43 60.13 61.69 62.93 62.23 60.26 58.83 56.81 56.70 55.78 57.59 56.30 56.04 55.87 55.37 55.66 55.45
60.56 61.23 61.72 61.00 59.40 58.46 58.28 57.43 56.84 56.28 56.14 55.78 55.52 55.74 56.70 57.65 58.44 59.40 61.17 60.84 59.34 58.72 57.87 57.64 57.65 58.76 60.30 60.41 59.75 60.35 61.15 61.65 62.27 60.69 58.52 58.58 57.59 59.00 57.43 56.70 55.64 55.38 55.84
60.79 60.52 59.76 59.28 58.36 57.77 56.99 55.79 55.21 55.58 55.90 56.37 56.79 57.18 57.50 58.68 58.41 58.38 59.88 61.49 60.59 60.12 59.53 59.06 58.58 58.50 58.79 59.02 59.43 59.71 60.35 60.41 60.61 60.70 61.56 61.32 60.61 61.47 58.87 59.32 58.55 56.73 56.22
59.88 59.52 59.58 59.27 58.46 57.90 56.88 56.01 55.94 56.28 56.73 57.21 57.79 58.01 57.94 58.72 56.95 57.07 58.62 59.69 59.40 59.42 59.99 59.74 58.93 58.67 58.34 58.03 59.64 59.59 59.72 59.75 59.43 58.81 59.23 59.36 59.43 58.75 59.22 57.65 56.30 54.49 54.98
59.74 60.13 60.13 59.97 59.31 58.41 57.69 56.96 57.23 57.51 57.92 58.32 58.69 58.81 58.21 58.57 56.43 55.23 56.86 58.48 58.42 58.31 59.25 59.29 58.49 59.17 56.94 56.36 59.40 59.32 57.98 58.83 59.34 59.38 59.33 59.07 59.44 60.00 59.11 59.92 58.80 55.28 55.63
60.79 60.64 60.35 59.95 59.19 58.81 58.58 58.55 58.34 58.34 58.20 58.06 57.78 58.17 58.25 57.90 58.38 54.44 54.68 58.31 58.21 58.24 58.27 58.96 59.02 56.57 55.17 54.24 54.78 59.16 58.43 59.77 58.84 58.57 58.30 58.25 58.71 58.99 58.60 58.30 58.95 57.70 55.85
60.44 60.28 59.96 59.54 59.40 59.65 58.97 59.03 58.48 58.09 57.21 56.89 56.55 56.73 57.52 58.56 55.63 55.49 54.03 54.38 57.56 58.25 58.99 59.85 59.88 54.44 52.71 52.55 53.77 54.52 53.67 55.09 57.45 57.43 56.89 56.73 57.08 57.42 58.18 58.76 58.89 57.80 58.33
59.25 59.57 59.64 59.59 59.39 59.27 57.80 57.59 56.67 57.22 56.79 56.74 56.20 56.35 56.86 58.63 58.38 54.21 53.50 53.79 54.46 56.79 58.62 58.32 55.68 53.17 51.36 52.77 52.67 53.17 53.66 57.19 56.63 55.49 55.76 54.73 55.57 57.88 58.38 57.65 57.95 57.53 56.55
58.10 58.04 58.55 58.29 58.22 58.04 57.86 57.54 57.10 56.91 56.78 56.34 56.38 56.43 57.01 57.81 58.31 59.36 58.53 58.19 55.61 57.25 57.45 58.23 57.57 56.69 55.31 56.70 56.91 57.44 57.58 57.08 55.62 56.12 56.31 57.27 56.59 55.71 56.69 57.39 56.72 57.12 56.05
57.30 57.30 57.16 57.55 57.59 57.62 57.79 58.29 58.04 58.99 57.97 58.26 57.93 58.04 57.52 57.32 58.29 55.24 55.40 58.44 58.23 55.55 55.10 56.62 56.18 56.33 55.49 55.37 54.60 55.55 56.37 56.03 55.62 56.72 56.81 56.08 55.49 57.27 57.25 57.63 56.65 55.49 52.67
56.80 56.73 56.87 57.30 57.53 57.77 58.07 58.19 53.85 53.69 51.09 48.98 48.61 52.94 58.61 53.25 49.97 47.80 45.73 44.74 44.78 45.96 52.72 54.13 54.25 53.58 53.03 53.62 54.07 54.82 55.87 56.30 58.35 58.15 57.56 57.32 55.86 56.31 55.71 56.13 55.59 53.69 52.22
57.55 57.47 57.47 56.86 57.96 57.81 56.84 55.86 55.75 56.11 48.99 48.01 46.03 45.20 45.15 49.15 47.01 45.57 43.49 43.12 43.11 45.64 51.08 52.43 52.33 53.03 53.76 54.77 55.36 55.92 56.74 58.29 58.29 57.30 57.17 56.23 55.14 54.83 53.98 53.98 52.44 51.95 50.47
58.89 54.64 59.00 58.58 58.24 57.86 57.27 57.01 56.17 54.78 54.52 56.11 51.08 48.42 46.26 43.70 43.59 42.40 42.07 43.67 52.24 48.95 51.67 52.13 52.54 54.42 55.15 55.89 57.30 57.44 57.26 56.95 56.83 56.75 56.09 56.01 55.39 54.22 54.18 53.88 51.66 50.09 49.32
60.03 60.56 59.30 59.38 58.58 57.70 58.02 57.16 56.38 55.33 55.17 55.94 57.47 54.04 50.35 43.35 42.71 42.08 41.37 56.07 55.53 55.39 55.37 54.83 55.57 56.01 56.96 57.68 57.28 56.67 55.79 54.30 53.69 54.09 54.78 54.70 55.31 54.85 53.92 51.15 51.24 45.62 46.33
61.05 59.32 59.49 59.12 59.21 58.40 57.83 57.37 57.15 56.89 56.70 56.75 56.77 57.09 57.95 51.52 54.46 55.37 51.85 53.50 54.70 55.47 56.44 56.62 57.44 57.98 57.34 56.60 55.77 54.99 54.25 53.73 53.76 54.72 55.31 55.25 53.36 49.70 47.55 46.21 44.94 44.77 44.67
60.35 60.65 59.68 59.58 59.45 59.17 58.55 58.03 58.27 57.66 57.00 56.41 56.50 56.97 50.62 56.97 57.34 57.88 58.07 57.38 57.08 57.59 58.21 58.17 58.11 56.82 55.69 55.31 54.92 54.56 54.21 54.07 54.03 53.99 54.38 49.06 46.84 45.03 44.25 44.16 44.79 44.46 44.01
61.24 60.90 60.91 59.90 60.24 59.62 59.19 59.10 58.29 56.73 56.39 56.31 57.42 57.32 48.03 55.63 58.20 58.14 57.89 58.18 58.46 58.91 59.52 58.95 57.00 55.37 55.40 55.13 54.82 54.21 53.84 53.37 53.38 53.37 52.75 48.75 45.38 43.79 42.75 42.55 43.61 43.31 43.71
60.70 60.42 59.88 59.68 59.55 57.24 57.82 57.43 56.77 56.70 56.74 57.41 58.17 58.24 57.82 57.88 57.63 57.84 57.74 58.89 58.53 58.72 58.32 56.67 55.60 54.80 54.30 53.88 53.94 53.90 52.92 53.62 53.06 52.25 51.39 48.29 43.95 43.57 44.31 44.28 44.00 44.25 43.36
60.25 59.79 59.66 59.51 59.90 57.99 57.42 57.18 56.80 52.79 56.05 58.00 57.83 58.08 58.06 58.14 57.93 57.38 57.89 58.17 58.34 58.02 56.43 55.03 54.89 54.07 53.07 52.25 51.72 51.60 51.14 50.18 49.59 49.79 48.59 45.84 44.56 43.82 43.86 43.01 43.53 43.16 43.01
59.66 59.22 58.60 58.46 57.65 57.34 57.19 56.66 57.23 57.71 57.88 57.94 58.09 58.17 58.52 58.00 57.68 57.61 57.34 56.31 57.17 56.82 55.32 54.03 52.80 51.61 51.41 51.43 51.73 50.96 44.03 35.50 44.25 41.02 46.16 45.51 44.95 45.00 44.49 43.19 42.39 42.56 42.70
57.65 58.07 58.09 58.14 57.46 57.21 57.27 57.05 57.32 57.69 57.90 58.40 58.53 58.59 58.06 56.67 56.30 55.22 55.16 55.23 54.85 54.39 54.10 52.38 51.11 50.86 51.00 51.30 50.22 42.50 34.33 32.29 38.95 35.84 44.36 44.36 44.04 43.99 42.63 41.69 41.72 41.99 42.08
MSLP
1013.91 1014.71 1015.81 1016.95 1014.73 1017.81 1017.83 1018.50 1019.26 1019.62 1019.68 1019.65 1019.86 1020.18 1020.48 1020.46 1020.32 1020.43 1020.38 1020.57 1020.72 1020.77 1020.91 1021.11 1021.14 1021.23 1021.44 1021.60 1021.78 1021.92 1022.10 1022.21 1022.62 1022.51 1022.71 1022.22 1021.90 1021.77 1021.55 1021.19 1021.17 1021.11 1021.06
1014.23 1014.61 1015.39 1016.91 1017.02 1017.09 1017.92 1018.78 1019.36 1019.86 1020.16 1020.07 1019.91 1020.21 1020.74 1020.83 1020.72 1020.67 1020.68 1020.72 1020.95 1021.16 1021.18 1021.06 1021.22 1021.49 1021.58 1021.60 1021.79 1021.97 1022.18 1022.28 1022.32 1022.48 1022.48 1022.16 1021.87 1021.63 1021.33 1021.30 1020.84 1020.56 1020.27
1014.22 1014.53 1015.61 1016.96 1017.00 1017.62 1018.58 1019.27 1019.73 1020.22 1020.30 1020.18 1019.97 1020.35 1020.56 1020.84 1020.93 1020.87 1021.06 1020.77 1021.04 1021.30 1021.15 1021.24 1021.20 1021.71 1021.48 1021.62 1021.69 1021.82 1021.85 1022.16 1022.33 1022.50 1022.42 1022.17 1021.82 1021.46 1021.30 1021.08 1020.41 1020.20 1020.19
1014.91 1015.56 1016.51 1017.09 1017.62 1018.25 1018.79 1019.39 1019.74 1019.87 1019.92 1020.25 1020.38 1020.36 1020.59 1020.64 1020.94 1020.92 1020.99 1020.87 1021.16 1021.12 1021.17 1021.10 1021.14 1021.46 1021.35 1021.35 1021.51 1021.63 1021.73 1021.91 1022.28 1022.37 1022.38 1022.03 1021.85 1021.50 1021.57 1021.17 1020.61 1020.52 1019.94
1015.62 1016.18 1016.67 1017.13 1018.00 1018.51 1018.74 1019.19 1019.72 1020.13 1020.22 1020.27 1020.38 1020.44 1020.61 1020.65 1020.77 1020.89 1020.83 1020.97 1021.06 1021.15 1020.95 1020.99 1021.04 1021.24 1020.80 1020.63 1021.19 1021.21 1021.20 1021.38 1021.82 1021.83 1021.77 1021.63 1021.39 1021.19 1020.99 1020.76 1020.73 1020.23 1019.69
1016.14 1016.59 1016.88 1017.17 1017.70 1018.28 1018.88 1019.27 1019.80 1020.18 1020.16 1020.21 1020.44 1020.40 1020.62 1020.41 1020.44 1020.39 1020.49 1020.85 1020.81 1020.78 1020.81 1020.89 1020.73 1021.10 1020.50 1020.70 1020.73 1020.54 1020.67 1021.04 1021.02 1021.14 1021.22 1021.05 1020.68 1020.69 1020.45 1020.37 1020.19 1019.90 1019.35
1016.13 1016.70 1016.91 1017.23 1017.82 1018.21 1018.84 1019.02 1019.39 1019.90 1020.20 1020.18 1020.31 1020.12 1020.25 1020.22 1020.15 1020.36 1020.34 1020.43 1020.41 1020.38 1020.69 1020.48 1020.98 1020.57 1020.45 1020.44 1020.40 1020.45 1020.38 1020.26 1020.18 1020.26 1020.30 1020.09 1019.95 1019.54 1019.82 1019.77 1019.81 1019.64 1019.16
1016.32 1016.82 1017.26 1017.44 1017.96 1018.44 1018.80 1019.19 1019.49 1019.59 1019.71 1019.83 1019.91 1020.04 1020.08 1020.04 1020.05 1019.94 1019.95 1019.96 1019.86 1019.93 1020.08 1020.34 1020.34 1020.06 1019.94 1020.07 1020.16 1020.08 1019.81 1019.64 1019.46 1019.53 1019.41 1018.94 1018.80 1018.65 1019.03 1019.10 1019.08 1018.92 1018.54
1016.35 1016.74 1017.10 1017.37 1017.90 1018.21 1018.52 1018.79 1018.95 1019.21 1019.26 1019.43 1019.61 1019.85 1020.02 1019.71 1019.58 1019.50 1019.60 1019.47 1019.60 1019.66 1019.77 1019.64 1019.50 1019.35 1019.10 1019.40 1019.70 1019.60 1019.34 1018.85 1018.48 1018.68 1018.61 1018.52 1018.42 1018.42 1018.54 1018.76 1018.50 1018.67 1017.98
1016.09 1016.43 1016.81 1017.14 1017.58 1017.95 1018.18 1018.39 1018.66 1018.72 1018.84 1019.16 1019.30 1019.42 1019.35 1019.32 1019.11 1018.97 1019.12 1019.40 1019.49 1019.44 1019.20 1018.96 1018.81 1018.75 1018.58 1018.80 1019.16 1019.12 1019.02 1018.24 1018.15 1017.91 1017.84 1017.66 1017.57 1017.29 1017.45 1017.72 1017.59 1017.66 1017.37
1015.86 1016.19 1016.59 1016.91 1017.14 1017.37 1017.80 1018.00 1018.16 1018.43 1018.61 1018.75 1018.96 1018.89 1018.93 1018.90 1018.78 1018.74 1018.84 1019.12 1018.95 1018.75 1018.46 1018.03 1017.90 1017.86 1017.87 1017.91 1018.19 1018.35 1018.04 1017.74 1017.77 1017.83 1017.65 1017.40 1017.08 1016.78 1016.52 1016.51 1016.51 1016.69 1016.60
1015.63 1015.96 1016.45 1016.65 1016.82 1017.12 1017.34 1017.46 1017.81 1018.16 1018.30 1018.44 1018.63 1018.58 1018.49 1018.37 1018.36 1018.19 1018.21 1018.22 1018.09 1018.10 1017.52 1017.29 1017.19 1017.20 1017.24 1017.29 1017.50 1017.29 1017.25 1017.49 1017.46 1017.16 1016.83 1016.37 1016.19 1015.94 1015.80 1015.63 1015.73 1015.81 1015.80
1015.52 1015.86 1016.16 1016.38 1016.62 1016.83 1017.01 1017.28 1017.64 1017.84 1018.02 1018.10 1018.30 1018.24 1017.81 1017.56 1017.53 1017.38 1017.29 1017.34 1017.54 1017.56 1017.00 1016.55 1016.30 1016.29 1016.50 1016.64 1016.47 1016.39 1016.64 1016.76 1016.45 1016.24 1015.79 1015.61 1015.66 1015.57 1015.57 1015.53 1015.21 1015.23 1015.28
1015.34 1015.60 1015.75 1016.08 1016.26 1016.52 1016.75 1017.00 1017.26 1017.41 1017.50 1017.53 1017.64 1017.62 1017.30 1016.98 1016.77 1016.52 1016.56 1016.59 1016.50 1016.54 1016.30 1016.20 1016.00 1015.96 1015.93 1015.91 1015.95 1015.68 1015.75 1015.72 1015.80 1015.53 1015.29 1015.11 1015.20 1015.35 1015.27 1015.33 1015.15 1014.84 1014.77
1015.11 1015.19 1015.48 1015.75 1015.91 1016.18 1016.40 1016.45 1016.58 1016.48 1016.56 1016.65 1016.64 1016.75 1016.74 1016.43 1015.74 1015.78 1015.94 1015.95 1016.04 1016.15 1016.01 1015.77 1015.64 1015.58 1015.52 1015.36 1015.25 1015.16 1015.15 1015.23 1015.22 1015.12 1015.08 1014.99 1014.95 1014.92 1014.95 1015.07 1015.00 1014.80 1014.72
1014.65 1015.00 1015.25 1015.56 1015.71 1015.84 1015.98 1015.90 1015.83 1015.79 1015.90 1015.89 1015.78 1016.04 1015.77 1015.69 1015.27 1015.22 1015.35 1015.63 1015.66 1015.78 1015.67 1015.26 1015.07 1015.08 1015.11 1015.09 1015.02 1014.87 1014.87 1014.79 1014.74 1014.77 1014.71 1014.58 1014.62 1014.72 1014.84 1014.76 1014.69 1014.67 1014.56
1013.97 1014.37 1014.81 1015.09 1015.34 1015.53 1015.65 1015.74 1015.56 1015.06 1015.15 1014.99 1014.89 1014.90 1015.12 1014.96 1014.88 1014.81 1014.98 1015.09 1014.99 1015.16 1015.11 1014.88 1014.83 1014.83 1014.77 1014.80 1014.72 1014.71 1014.60 1014.44 1014.51 1014.44 1014.30 1014.19 1014.29 1014.47 1014.54 1014.47 1014.57 1014.57 1014.46
1013.34 1013.61 1013.95 1014.20 1014.42 1014.74 1014.96 1015.04 1015.17 1015.22 1014.99 1014.45 1013.99 1014.24 1014.16 1014.16 1014.03 1014.14 1014.35 1014.60 1014.63 1014.88 1014.79 1014.62 1014.50 1014.48 1014.41 1014.34 1014.34 1014.38 1014.34 1014.33 1014.23 1014.07 1013.95 1013.86 1013.84 1013.96 1013.95 1013.98 1014.16 1014.40 1014.42
1012.70 1013.04 1013.19 1013.33 1013.62 1013.83 1014.11 1014.31 1014.45 1014.61 1014.53 1014.14 1013.67 1013.42 1013.48 1013.53 1013.76 1013.87 1013.88 1013.79 1014.04 1014.21 1014.17 1014.13 1014.06 1013.98 1013.91 1013.96 1014.08 1014.14 1014.16 1014.11 1014.00 1013.76 1013.49 1013.38 1013.33 1013.47 1013.66 1013.91 1013.92 1014.09 1014.10
1011.71 1011.87 1012.22 1012.59 1012.76 1013.16 1013.41 1013.69 1013.75 1013.75 1013.67 1013.43 1013.19 1012.79 1013.01 1013.42 1013.54 1013.83 1013.69 1013.36 1013.31 1013.30 1013.26 1013.34 1013.52 1013.56 1013.57 1013.70 1013.80 1013.81 1013.72 1013.55 1013.47 1013.27 1013.05 1012.87 1013.06 1013.39 1013.59 1013.75 1013.80 1013.80 1013.73
1010.67 1011.04 1011.49 1011.67 1011.97 1012.24 1012.52 1012.77 1012.77 1012.79 1012.66 1012.48 1012.16 1011.81 1012.08 1012.53 1012.46 1012.50 1012.66 1012.45 1012.36 1012.33 1012.52 1012.77 1012.93 1013.11 1013.20 1013.28 1013.24 1013.16 1013.16 1013.10 1013.01 1012.89 1012.78 1012.97 1013.12 1013.22 1013.30 1013.15 1013.26 1013.42 1013.42
1010.03 1010.12 1010.50 1010.93 1011.01 1011.45 1011.63 1011.78 1011.91 1011.95 1011.83 1011.71 1011.30 1011.20 1011.38 1011.53 1011.51 1011.48 1011.54 1011.61 1011.50 1011.54 1011.76 1012.16 1012.38 1012.47 1012.59 1012.72 1012.74 1012.73 1012.72 1012.63 1012.43 1012.41 1012.38 1012.54 1012.78 1012.96 1013.00 1013.06 1013.00 1012.82 1012.71
1009.15 1009.29 1009.77 1010.21 1010.40 1010.62 1010.89 1011.03 1011.08 1011.02 1010.81 1010.54 1010.38 1010.41 1010.52 1010.47 1010.39 1010.36 1010.49 1010.54 1010.67 1010.96 1011.31 1011.67 1011.72 1011.87 1012.03 1012.15 1012.16 1012.21 1012.18 1012.03 1011.93 1011.90 1011.83 1011.96 1012.21 1012.49 1012.67 1012.71 1012.66 1012.38 1012.27
1008.54 1008.90 1009.17 1009.35 1009.61 1009.85 1010.07 1010.07 1010.00 1009.89 1009.76 1009.57 1009.49 1009.42 1009.38 1009.34 1009.29 1009.32 1009.47 1009.76 1010.02 1010.44 1010.72 1010.86 1010.98 1011.19 1011.35 1011.46 1011.51 1011.54 1011.55 1011.53 1011.46 1011.27 1011.34 1011.61 1011.97 1012.25 1012.42 1012.39 1012.20 1012.00 1011.77
1008.05 1008.38 1008.61 1008.82 1009.08 1009.18 1009.20 1009.18 1009.03 1008.78 1008.57 1008.50 1008.34 1008.25 1008.19 1008.32 1008.35 1008.38 1008.36 1008.79 1009.25 1009.69 1009.88 1009.95 1010.16 1010.44 1010.65 1010.80 1010.79 1010.78 1010.95 1011.12 1011.00 1011.06 1011.21 1011.45 1011.65 1011.78 1011.80 1011.76 1011.68 1011.54 1011.34
1007.42 1007.70 1007.89 1008.06 1008.23 1008.23 1008.25 1008.15 1007.91 1007.75 1007.66 1007.51 1007.42 1007.32 1007.32 1007.41 1007.43 1007.63 1008.04 1008.20 1008.38 1008.72 1009.01 1009.21 1009.42 1009.66 1009.89 1010.11 1010.16 1010.24 1010.63 1010.86 1010.98 1011.15 1011.22 1011.40 1011.45 1011.39 1011.36 1011.31 1011.15 1011.03 1010.76
Wind_Speed
13 12 10 5 12 8 7 5 4 4 4 5 5 5 4 4 3 4 4 5 5 4 5 4 5 4 4 3 3 3 2 2 2 1 2 3 3 3 3 2 3 3 4
6 10 11 7 8 8 7 6 5 5 3 5 6 5 4 3 3 4 4 4 4 4 4 5 5 3 4 4 3 3 2 1 2 2 1 1 3 2 3 4 3 3 3
10 12 10 7 7 8 7 6 6 6 6 4 4 4 4 4 4 4 4 5 5 4 4 3 3 2 2 2 2 1 2 2 1 2 2 1 2 1 2 3 3 4 5
10 10 9 9 8 8 8 7 7 5 6 5 4 4 4 4 4 4 3 3 2 1 2 2 2 2 2 1 1 2 2 2 2 2 3 3 3 2 3 3 3 3 5
8 8 9 9 8 7 6 6 6 5 4 4 5 4 4 4 3 4 3 2 2 2 1 2 3 5 6 5 3 3 3 2 3 4 3 2 3 3 4 1 4 5 4
8 8 8 9 8 7 6 6 5 5 4 3 3 4 4 3 5 6 5 3 3 3 3 4 3 8 6 8 8 8 6 5 5 2 2 4 6 4 3 3 3 3 4
9 8 8 8 7 7 6 6 4 4 4 4 4 3 3 4 6 7 7 4 5 5 5 5 7 6 7 5 5 7 8 10 12 5 7 7 5 5 2 3 4 4 6
7 6 6 7 6 6 6 6 4 3 3 3 3 4 4 5 9 8 9 6 5 6 7 8 7 8 7 7 6 7 8 8 9 7 10 10 9 8 8 5 6 6 6
7 7 6 6 6 6 5 5 3 3 3 3 2 4 6 7 8 10 5 3 5 7 8 8 8 9 11 9 7 8 9 10 7 11 13 13 14 12 9 3 7 5 7
6 6 6 6 5 5 5 5 4 3 3 3 5 5 6 7 7 7 4 3 6 6 7 9 13 12 12 9 9 8 9 12 8 8 7 9 13 11 11 11 8 8 8
5 5 5 5 6 5 4 4 3 4 3 3 5 4 5 6 8 9 9 6 6 6 7 6 7 14 16 15 13 9 10 7 8 8 8 8 8 8 7 7 9 9 8
5 5 5 5 5 4 5 3 3 3 3 3 3 5 5 6 9 10 11 13 8 7 7 5 6 10 13 14 10 15 16 11 8 8 7 8 7 8 7 6 6 8 9
5 6 6 5 5 4 4 4 2 3 3 4 4 5 6 4 5 12 12 10 9 6 7 10 13 10 9 10 15 15 11 7 6 6 7 6 5 6 8 7 7 6 7
6 6 5 5 5 4 3 3 4 4 4 5 5 6 6 6 6 5 4 4 7 8 8 8 8 8 8 9 7 6 5 5 5 8 7 7 3 4 6 4 4 4 6
6 5 5 4 5 4 5 5 5 6 6 5 6 5 5 6 7 8 7 5 4 4 6 4 5 4 5 5 5 6 5 5 6 6 7 6 4 4 6 5 5 5 5
6 5 5 5 4 4 4 4 9 12 10 13 14 9 7 13 15 14 10 7 8 6 3 5 6 4 5 6 6 6 6 6 5 5 5 5 4 5 6 5 3 3 6
9 7 5 6 5 5 4 4 5 5 12 12 13 12 14 17 13 13 7 6 6 6 4 4 5 5 5 5 5 4 6 4 5 5 5 4 4 4 5 4 4 4 5
9 9 7 6 6 5 5 5 4 4 5 6 8 11 11 15 14 9 6 5 2 2 2 4 5 4 5 4 4 4 4 5 5 6 6 6 6 5 5 6 3 4 5
9 8 7 5 4 5 4 5 5 5 6 7 8 6 7 6 4 4 8 2 2 3 4 4 5 4 4 3 3 4 4 5 6 6 5 5 5 5 3 2 3 3 4
9 11 8 6 5 5 5 5 6 6 6 7 7 8 2 3 3 3 5 4 4 5 4 4 4 3 3 3 4 4 3 4 4 5 6 4 2 1 2 1 1 3 5
7 7 10 6 6 6 5 6 7 6 7 7 8 7 7 5 4 4 5 5 6 5 4 4 4 4 4 4 4 3 3 5 5 5 4 2 3 3 4 3 0 2 4
7 7 6 8 6 6 7 7 6 6 7 7 8 4 5 4 5 5 6 6 5 5 4 5 4 4 3 3 4 4 5 6 6 4 5 4 4 3 2 1 3 3 4
7 7 6 6 6 6 6 6 6 7 8 8 7 5 5 6 6 7 7 6 5 5 5 5 5 4 3 4 4 5 5 6 6 5 6 5 4 4 2 3 4 5 5
7 7 7 6 6 6 6 8 7 9 9 9 8 7 7 7 8 8 8 6 6 6 6 6 6 7 5 4 3 4 4 4 4 4 5 4 4 3 3 4 5 7 7
7 6 6 6 6 7 7 8 9 9 9 8 8 8 7 7 8 9 8 6 7 8 9 8 6 7 7 8 6 5 3 3 4 4 4 4 4 5 5 5 6 6 8
5 6 6 6 7 8 8 9 9 8 8 8 8 7 7 7 7 7 6 8 8 9 10 7 7 9 8 7 6 3 5 6 5 4 4 3 4 4 4 6 7 6 8
Wind_Direction
132 141 139 176 127 149 141 124 113 107 126 132 136 126 114 113 111 116 101 110 101 92 80 91 79 79 97 93 98 105 112 84 159 227 238 262 276 282 301 289 270 264 290
132 113 114 108 119 112 117 120 128 134 148 147 131 119 123 119 122 120 119 106 100 101 95 92 81 80 73 86 113 114 145 151 149 220 256 272 256 294 283 285 289 303 296
111 109 104 125 112 113 127 136 136 153 156 140 124 144 152 150 135 111 123 118 115 124 115 113 97 83 94 104 109 135 154 162 162 202 281 269 280 299 319 284 299 315 290
123 120 133 137 135 141 145 155 149 149 144 156 156 143 149 143 157 147 138 119 114 117 140 145 173 197 197 176 226 233 185 184 205 233 260 268 257 282 277 281 294 239 300
123 136 142 136 144 146 139 133 140 157 151 152 150 145 160 169 173 175 161 161 177 215 262 255 252 245 239 226 239 246 205 209 209 218 232 244 253 253 239 254 277 300 287
143 146 145 145 146 145 141 139 154 167 160 151 165 170 189 206 211 200 178 206 227 252 263 254 258 264 269 264 259 245 222 226 241 225 248 259 270 262 236 251 264 287 302
144 153 153 140 139 144 149 142 151 172 174 179 192 183 219 236 244 244 235 220 232 243 253 270 265 256 249 255 261 271 264 250 238 231 253 248 255 242 240 277 245 253 264
133 137 143 139 143 148 150 162 167 169 186 197 217 222 244 249 246 248 248 247 250 256 249 245 243 262 245 238 263 278 276 268 251 237 233 253 240 252 218 252 278 273 273
148 152 153 147 152 151 158 168 162 184 201 224 240 239 242 268 227 242 242 253 254 256 255 252 246 255 254 220 236 260 276 277 256 233 241 251 261 257 241 256 265 270 282
163 165 158 152 156 174 175 177 188 198 220 228 254 242 239 259 272 272 255 253 257 255 255 254 246 241 247 211 222 232 252 258 266 273 249 243 245 253 238 222 253 248 258
158 152 159 173 183 187 182 187 190 218 247 251 249 259 260 244 266 249 234 236 242 254 254 257 238 224 236 241 218 227 232 260 259 263 281 284 280 270 267 224 220 229 244
158 161 181 188 196 193 205 212 209 203 228 250 263 279 249 248 238 259 242 224 227 237 258 270 267 216 227 233 223 228 233 239 252 259 262 271 273 280 280 276 246 232 239
168 187 192 189 199 197 185 209 219 210 226 256 245 262 277 259 235 229 251 239 221 236 243 248 256 259 237 244 236 239 235 236 242 246 259 260 261 278 287 285 278 263 246
181 193 182 194 200 198 206 206 218 222 224 237 247 254 262 271 275 269 252 251 239 230 258 265 262 265 261 272 298 278 261 250 254 267 264 269 280 283 271 267 286 311 309
186 176 184 208 207 204 217 216 217 235 210 238 245 239 255 272 260 226 228 250 251 241 268 263 273 267 285 286 279 276 287 289 265 260 267 266 255 267 281 298 293 303 287
181 193 200 208 218 221 231 264 226 241 226 231 245 233 252 237 272 276 258 266 276 259 245 259 267 260 272 285 287 292 283 271 270 276 263 250 261 271 279 276 243 260 288
201 194 197 204 211 217 223 233 266 285 240 245 248 245 227 248 260 272 295 283 265 152 231 259 266 269 276 274 270 260 276 290 292 275 262 268 249 245 243 246 261 277 295
211 201 198 206 211 204 216 227 234 246 280 294 237 231 239 238 252 260 243 169 171 188 239 243 250 257 267 260 263 275 296 296 290 280 270 264 254 239 241 232 211 255 277
204 209 211 214 216 216 213 229 232 238 248 262 285 261 236 250 250 228 180 213 194 216 221 238 247 244 240 260 282 289 282 284 287 280 260 256 262 237 233 222 251 256 275
210 205 191 208 212 212 217 234 243 237 249 257 266 268 187 160 204 216 217 206 218 229 225 229 225 234 251 260 258 244 262 294 295 284 278 255 189 155 175 245 53 335 315
204 196 211 205 209 218 220 223 239 243 252 254 254 250 202 212 251 221 222 218 214 214 212 209 209 221 232 238 252 281 276 274 277 280 279 170 182 190 187 179 301 293 296
198 202 198 215 216 217 229 232 237 245 251 253 263 255 220 219 235 228 230 230 221 209 195 203 206 215 237 260 271 274 273 272 275 269 244 219 208 204 191 261 282 291 317
204 196 195 213 214 225 235 239 242 242 252 250 252 247 213 224 229 230 224 219 209 206 197 203 207 226 232 242 243 249 265 275 286 281 260 218 189 206 241 286 290 302 308
197 208 210 215 223 224 235 248 248 247 251 253 250 244 244 245 242 227 221 211 206 209 202 204 209 224 236 245 245 251 256 272 273 272 232 199 194 202 245 258 282 300 300
204 211 214 223 228 232 240 241 248 252 253 251 248 238 245 238 228 224 206 201 208 209 212 208 206 218 230 237 245 272 282 241 226 172 183 202 226 248 268 281 285 294 295
201 205 220 228 231 233 233 241 245 248 245 247 243 241 243 230 224 214 214 211 206 213 216 208 210 213 217 224 237 212 175 181 182 175 183 217 251 267 271 279 289 285 291